星链-35929(STARLINK-35929)

导读 | 豆包AI

STARLINK-35929是美国SpaceX公司星链(Starlink)星座的卫星,于2025年11月23日发射,属于星链星座扩容的一部分。星链项目旨在近地轨道构建全球卫星互联网星座,为偏远地区、基础设施缺失区域提供高速低延迟宽带服务,该卫星延续星链技术设计,助力SpaceX推进全球覆盖的卫星互联网组网进程,进一步扩展星座服务能力。

基本信息
目录编号:
66625
目录名称:
STARLINK-35929
国际标识:
2025-271J
轨道中心:
EARTH
卫星名称:
星链-35929
卫星全名:
星链-35929(STARLINK-35929)
卫星状态:
在轨 (已飞行132 天)
发射日期:
2025-11-23 UTC
国别 :
美国 (US)
星等 :
--
轨道信息
数据来源 国际轨道数据
星历时间: 2026-04-04T03:03:54+0800
9小时前
查看轨道信息
半长轴: 6853.276km
偏心率: 0.0001429
轨道倾角: 53.162°
近地点辐角 92.991°
升交点赤经 23.088°
平近点角 267.126°
近地点: 474.159km
远地点: 476.119km
周期: 94.104分钟
每日圈数: 15.302255
详细信息
固有亮度:
5
最大亮度:
2.5
卫星平台:
Starlink V1.0
覆盖范围:
全球
运营商:
太空探索技术公司
运营商所在国:
美国
制造商(研发单位):
太空探索技术公司
制造商所在国:
美国
使用方式:
暂无
卫星简介
Starlink 计划是 SpaceX 推出的全球卫星互联网项目,通过发射低轨道卫星,为全球尤其是偏远地区提供高速、低延迟的互联网服务。自 2019 年起,Starlink 已部署数千颗卫星,旨在缩小全球数字鸿沟,推动互联网普及。该项目还为军事、航空等行业提供通信支持,带来广泛经济效益。
2D轨道图
3D轨道图
轨道高度分析图
轨道倾角分析图
轨道综合分析图
查看轨道综合分析图